Time,TemperatureF,DewpointF,PressureIn,WindDirection,WindDirectionDegrees,WindSpeedMPH,WindSpeedGustMPH,Humidity,HourlyPrecipIn,Conditions,Clouds,dailyrainin,SoftwareType,DateUTC
2013-06-02 00:02:00,76.0,-99.9,3.00,North,0,0.0,0.0,89,-99.99,,,-99.99,,2013-06-02 04:02:00,
2013-06-02 00:13:00,76.0,73.0,3.00,North,0,0.0,0.0,89,-99.99,,,-99.99,,2013-06-02 04:13:00,
2013-06-02 00:23:00,76.0,73.0,3.00,North,0,0.0,0.0,89,-99.99,,,-99.99,,2013-06-02 04:23:00,
2013-06-02 00:33:00,76.0,73.0,3.00,North,0,0.0,0.0,90,-99.99,,,-99.99,,2013-06-02 04:33:00,
2013-06-02 00:42:00,76.0,73.0,3.00,North,0,0.0,0.0,90,-99.99,,,-99.99,,2013-06-02 04:42:00,
2013-06-02 00:53:00,76.0,73.0,3.00,North,0,0.0,0.0,90,-99.99,,,-99.99,,2013-06-02 04:53:00,
2013-06-02 01:02:00,76.0,73.0,3.00,North,0,0.0,0.0,90,-99.99,,,-99.99,,2013-06-02 05:02:00,
2013-06-02 01:12:00,76.0,73.0,3.00,North,0,0.0,0.0,90,-99.99,,,-99.99,,2013-06-02 05:12:00,
2013-06-02 01:22:00,75.0,72.0,30.00,North,0,0.0,0.0,91,-99.99,,,-99.99,,2013-06-02 05:22:00,
2013-06-02 01:32:00,76.0,73.0,29.99,North,0,0.0,0.0,91,-99.99,,,-99.99,,2013-06-02 05:32:00,
2013-06-02 01:42:00,76.0,73.0,29.99,North,0,0.0,0.0,91,-99.99,,,-99.99,,2013-06-02 05:42:00,
2013-06-02 01:52:00,76.0,73.0,29.98,North,0,0.0,0.0,90,-99.99,,,-99.99,,2013-06-02 05:52:00,
2013-06-02 02:01:00,76.0,73.0,29.97,North,0,0.0,0.0,90,-99.99,,,-99.99,,2013-06-02 06:01:00,
2013-06-02 02:12:00,77.0,74.0,29.96,North,0,0.0,0.0,89,-99.99,,,-99.99,,2013-06-02 06:12:00,
2013-06-02 02:21:00,77.0,74.0,29.96,North,0,0.0,0.0,89,-99.99,,,-99.99,,2013-06-02 06:21:00,
2013-06-02 02:32:00,77.0,74.0,29.96,North,0,0.0,0.0,89,-99.99,,,-99.99,,2013-06-02 06:32:00,
2013-06-02 02:42:00,77.0,74.0,29.96,North,0,0.0,0.0,89,-99.99,,,-99.99,,2013-06-02 06:42:00,
2013-06-02 02:52:00,77.0,74.0,29.96,North,0,0.0,0.0,89,-99.99,,,-99.99,,2013-06-02 06:52:00,
2013-06-02 03:01:00,77.0,74.0,29.96,North,0,0.0,0.0,89,-99.99,,,-99.99,,2013-06-02 07:01:00,
2013-06-02 03:11:00,77.0,74.0,29.96,North,0,0.0,0.0,89,-99.99,,,-99.99,,2013-06-02 07:11:00,
2013-06-02 03:21:00,77.0,74.0,29.97,North,0,0.0,0.0,89,-99.99,,,-99.99,,2013-06-02 07:21:00,
2013-06-02 03:32:00,76.0,73.0,29.97,North,0,0.0,0.0,90,-99.99,,,-99.99,,2013-06-02 07:32:00,
2013-06-02 03:42:00,76.0,73.0,29.96,North,0,0.0,0.0,90,-99.99,,,-99.99,,2013-06-02 07:42:00,
2013-06-02 03:52:00,76.0,73.0,29.96,North,0,0.0,0.0,90,-99.99,,,-99.99,,2013-06-02 07:52:00,
2013-06-02 04:02:00,76.0,73.0,29.96,North,0,0.0,0.0,90,-99.99,,,-99.99,,2013-06-02 08:02:00,
2013-06-02 04:12:00,76.0,73.0,29.96,North,0,0.0,0.0,90,-99.99,,,-99.99,,2013-06-02 08:12:00,
2013-06-02 04:21:00,77.0,74.0,29.96,North,0,0.0,0.0,90,-99.99,,,-99.99,,2013-06-02 08:21:00,
2013-06-02 04:32:00,77.0,74.0,29.96,North,0,0.0,0.0,89,-99.99,,,-99.99,,2013-06-02 08:32:00,
2013-06-02 04:42:00,78.0,74.0,29.96,North,0,0.0,0.0,89,-99.99,,,-99.99,,2013-06-02 08:42:00,
2013-06-02 04:52:00,78.0,74.0,29.96,North,0,0.0,0.0,89,-99.99,,,-99.99,,2013-06-02 08:52:00,
2013-06-02 05:01:00,78.0,74.0,29.96,North,0,0.0,0.0,88,-99.99,,,-99.99,,2013-06-02 09:01:00,
2013-06-02 05:11:00,78.0,74.0,29.96,North,0,0.0,0.0,88,-99.99,,,-99.99,,2013-06-02 09:11:00,
2013-06-02 05:21:00,77.0,74.0,29.95,North,0,0.0,0.0,89,-99.99,,,-99.99,,2013-06-02 09:21:00,
2013-06-02 05:33:00,77.0,74.0,29.95,North,0,0.0,0.0,89,-99.99,,,-99.99,,2013-06-02 09:33:00,
2013-06-02 05:42:00,77.0,74.0,29.95,North,0,0.0,0.0,89,-99.99,,,-99.99,,2013-06-02 09:42:00,
2013-06-02 05:53:00,77.0,74.0,29.96,North,0,0.0,0.0,89,-99.99,,,-99.99,,2013-06-02 09:53:00,
2013-06-02 06:02:00,78.0,74.0,29.96,North,0,0.0,0.0,89,-99.99,,,-99.99,,2013-06-02 10:02:00,
2013-06-02 06:12:00,78.0,74.0,29.96,North,0,0.0,0.0,89,-99.99,,,-99.99,,2013-06-02 10:12:00,
2013-06-02 06:22:00,77.0,74.0,29.97,North,0,0.0,0.0,89,-99.99,,,-99.99,,2013-06-02 10:22:00,
2013-06-02 06:32:00,77.0,74.0,29.97,North,0,0.0,0.0,90,-99.99,,,-99.99,,2013-06-02 10:32:00,
2013-06-02 06:42:00,77.0,74.0,29.97,North,0,0.0,0.0,90,-99.99,,,-99.99,,2013-06-02 10:42:00,
2013-06-02 06:52:00,77.0,73.0,29.98,North,0,0.0,0.0,87,-99.99,,,-99.99,,2013-06-02 10:52:00,
2013-06-02 07:02:00,77.0,73.0,29.98,North,0,0.0,0.0,87,-99.99,,,-99.99,,2013-06-02 11:02:00,
2013-06-02 07:12:00,77.0,73.0,29.98,North,0,0.0,0.0,87,-99.99,,,-99.99,,2013-06-02 11:12:00,
2013-06-02 07:22:00,77.0,73.0,29.98,North,0,0.0,0.0,87,-99.99,,,-99.99,,2013-06-02 11:22:00,
2013-06-02 07:32:00,77.0,73.0,29.98,North,0,0.0,0.0,88,-99.99,,,-99.99,,2013-06-02 11:32:00,
2013-06-02 07:42:00,77.0,73.0,29.98,North,0,0.0,0.0,88,-99.99,,,-99.99,,2013-06-02 11:42:00,
2013-06-02 07:52:00,77.0,73.0,29.99,North,0,0.0,0.0,88,-99.99,,,-99.99,,2013-06-02 11:52:00,
2013-06-02 08:01:00,77.0,73.0,29.99,North,0,0.0,-999.0,88,-99.99,,,-99.99,,2013-06-02 12:01:00,
2013-06-02 08:11:00,77.0,73.0,29.99,North,0,0.0,-999.0,88,-99.99,,,-99.99,,2013-06-02 12:11:00,
2013-06-02 08:21:00,78.0,74.0,29.99,North,0,0.0,0.0,88,-99.99,,,-99.99,,2013-06-02 12:21:00,
2013-06-02 08:32:00,78.0,73.0,29.99,North,0,0.0,0.0,86,-99.99,,,-99.99,,2013-06-02 12:32:00,
2013-06-02 08:42:00,78.0,73.0,29.99,North,0,0.0,0.0,86,-99.99,,,-99.99,,2013-06-02 12:42:00,
2013-06-02 08:52:00,79.0,74.0,29.99,North,0,0.0,0.0,85,-99.99,,,-99.99,,2013-06-02 12:52:00,
2013-06-02 09:01:00,80.0,75.0,29.99,North,0,0.0,0.0,84,-99.99,,,-99.99,,2013-06-02 13:01:00,
2013-06-02 09:12:00,80.0,75.0,29.99,North,0,0.0,0.0,84,-99.99,,,-99.99,,2013-06-02 13:12:00,
2013-06-02 09:21:00,79.0,73.0,0.03,North,0,601.0,601.0,82,-99.99,,,-99.99,,2013-06-02 13:21:00,
2013-06-02 09:32:00,80.0,73.0,29.99,North,0,0.0,0.0,79,-99.99,,,-99.99,,2013-06-02 13:32:00,
2013-06-02 09:42:00,80.0,73.0,29.99,North,0,0.0,0.0,79,-99.99,,,-99.99,,2013-06-02 13:42:00,
2013-06-02 09:52:00,80.0,73.0,29.99,North,0,0.0,0.0,79,-99.99,,,-99.99,,2013-06-02 13:52:00,
2013-06-02 10:02:00,81.0,73.0,29.99,North,0,0.0,0.0,77,-99.99,,,-99.99,,2013-06-02 14:02:00,
2013-06-02 10:11:00,81.0,73.0,29.99,North,0,0.0,0.0,77,-99.99,,,-99.99,,2013-06-02 14:11:00,
2013-06-02 10:21:00,81.0,74.0,30.00,North,0,0.0,0.0,80,-99.99,,,-99.99,,2013-06-02 14:21:00,
2013-06-02 10:32:00,81.0,74.0,30.01,North,0,0.0,0.0,80,-99.99,,,-99.99,,2013-06-02 14:32:00,
2013-06-02 10:42:00,81.0,74.0,30.01,North,0,0.0,0.0,80,-99.99,,,-99.99,,2013-06-02 14:42:00,
2013-06-02 10:52:00,82.0,75.0,30.01,North,0,0.0,0.0,79,-99.99,,,-99.99,,2013-06-02 14:52:00,
2013-06-02 11:01:00,82.0,74.0,30.00,North,0,0.0,0.0,78,-99.99,,,-99.99,,2013-06-02 15:01:00,
2013-06-02 11:11:00,82.0,74.0,30.00,North,0,0.0,0.0,78,-99.99,,,-99.99,,2013-06-02 15:11:00,
2013-06-02 11:21:00,81.0,75.0,30.00,North,0,0.0,0.0,81,-99.99,,,-99.99,,2013-06-02 15:21:00,
2013-06-02 11:33:00,82.0,75.0,29.99,North,0,0.0,0.0,79,-99.99,,,-99.99,,2013-06-02 15:33:00,
2013-06-02 11:43:00,82.0,75.0,29.99,North,0,0.0,0.0,80,-99.99,,,-99.99,,2013-06-02 15:43:00,
2013-06-02 11:53:00,82.0,75.0,29.99,North,0,0.0,0.0,80,-99.99,,,-99.99,,2013-06-02 15:53:00,
2013-06-02 12:03:00,82.0,76.0,29.99,North,0,0.0,0.0,81,-99.99,,,-99.99,,2013-06-02 16:03:00,
2013-06-02 12:13:00,82.0,76.0,29.99,North,0,0.0,0.0,81,-99.99,,,-99.99,,2013-06-02 16:13:00,
2013-06-02 12:23:00,82.0,75.0,29.98,North,0,0.0,0.0,79,-99.99,,,-99.99,,2013-06-02 16:23:00,
2013-06-02 12:33:00,83.0,75.0,29.99,North,0,0.0,0.0,77,-99.99,,,-99.99,,2013-06-02 16:33:00,
2013-06-02 12:42:00,83.0,75.0,29.99,North,0,0.0,0.0,77,-99.99,,,-99.99,,2013-06-02 16:42:00,
2013-06-02 12:53:00,84.0,76.0,29.99,North,0,0.0,0.0,76,-99.99,,,-99.99,,2013-06-02 16:53:00,
2013-06-02 13:02:00,84.0,75.0,29.99,North,0,0.0,0.0,74,-99.99,,,-99.99,,2013-06-02 17:02:00,
2013-06-02 13:12:00,84.0,75.0,29.99,North,0,0.0,0.0,74,-99.99,,,-99.99,,2013-06-02 17:12:00,
2013-06-02 13:23:00,82.0,74.0,29.98,North,0,0.0,0.0,77,-99.99,,,-99.99,,2013-06-02 17:23:00,
2013-06-02 13:32:00,83.0,75.0,29.98,North,0,0.0,0.0,77,-99.99,,,-99.99,,2013-06-02 17:32:00,
2013-06-02 13:42:00,83.0,74.0,29.97,North,0,0.0,0.0,74,-99.99,,,-99.99,,2013-06-02 17:42:00,
2013-06-02 13:52:00,83.0,74.0,29.97,North,0,0.0,0.0,74,-99.99,,,-99.99,,2013-06-02 17:52:00,
2013-06-02 14:02:00,82.0,75.0,29.97,North,0,0.0,0.0,79,-99.99,,,-99.99,,2013-06-02 18:02:00,
2013-06-02 14:11:00,82.0,75.0,29.97,North,0,0.0,0.0,79,-99.99,,,-99.99,,2013-06-02 18:11:00,
2013-06-02 14:21:00,82.0,75.0,29.97,North,0,0.0,0.0,79,-99.99,,,-99.99,,2013-06-02 18:21:00,
2013-06-02 14:32:00,82.0,74.0,29.97,North,0,0.0,0.0,78,-99.99,,,-99.99,,2013-06-02 18:32:00,
2013-06-02 14:42:00,82.0,74.0,29.96,North,0,0.0,0.0,77,-99.99,,,-99.99,,2013-06-02 18:42:00,
2013-06-02 14:52:00,82.0,74.0,29.96,North,0,0.0,0.0,77,-99.99,,,-99.99,,2013-06-02 18:52:00,
2013-06-02 15:01:00,82.0,74.0,29.96,North,0,0.0,0.0,78,-99.99,,,-99.99,,2013-06-02 19:01:00,
2013-06-02 15:11:00,82.0,74.0,29.96,North,0,0.0,0.0,78,-99.99,,,-99.99,,2013-06-02 19:11:00,
2013-06-02 15:21:00,82.0,74.0,29.97,North,0,0.0,0.0,76,-99.99,,,-99.99,,2013-06-02 19:21:00,
2013-06-02 15:32:00,81.0,72.0,29.97,North,0,0.0,0.0,74,-99.99,,,-99.99,,2013-06-02 19:32:00,
2013-06-02 15:42:00,81.0,72.0,29.97,North,0,0.0,0.0,74,-99.99,,,-99.99,,2013-06-02 19:42:00,
2013-06-02 15:52:00,81.0,74.0,29.96,North,0,0.0,0.0,80,-99.99,,,-99.99,,2013-06-02 19:52:00,
2013-06-02 16:02:00,81.0,75.0,29.95,North,0,0.0,0.0,81,-99.99,,,-99.99,,2013-06-02 20:02:00,
2013-06-02 16:11:00,81.0,75.0,29.95,North,0,0.0,0.0,81,-99.99,,,-99.99,,2013-06-02 20:11:00,
2013-06-02 16:22:00,81.0,75.0,29.95,North,0,0.0,0.0,82,-99.99,,,-99.99,,2013-06-02 20:22:00,
2013-06-02 16:32:00,82.0,76.0,29.94,North,0,0.0,0.0,81,-99.99,,,-99.99,,2013-06-02 20:32:00,
2013-06-02 16:42:00,82.0,76.0,29.94,North,0,0.0,0.0,81,-99.99,,,-99.99,,2013-06-02 20:42:00,
2013-06-02 16:52:00,82.0,75.0,29.93,North,0,0.0,0.0,80,-99.99,,,-99.99,,2013-06-02 20:52:00,
2013-06-02 17:01:00,82.0,74.0,29.93,North,0,0.0,0.0,78,-99.99,,,-99.99,,2013-06-02 21:01:00,
2013-06-02 17:12:00,82.0,74.0,29.93,North,0,0.0,0.0,78,-99.99,,,-99.99,,2013-06-02 21:12:00,
2013-06-02 17:21:00,82.0,73.0,29.93,North,0,0.0,0.0,75,-99.99,,,-99.99,,2013-06-02 21:21:00,
2013-06-02 17:33:00,83.0,74.0,29.93,North,0,0.0,0.0,75,-99.99,,,-99.99,,2013-06-02 21:33:00,
2013-06-02 17:42:00,83.0,74.0,29.93,North,0,0.0,0.0,75,-99.99,,,-99.99,,2013-06-02 21:42:00,
2013-06-02 17:53:00,82.0,75.0,29.92,North,0,0.0,0.0,79,-99.99,,,-99.99,,2013-06-02 21:53:00,
2013-06-02 18:03:00,81.0,75.0,29.93,North,0,0.0,0.0,81,-99.99,,,-99.99,,2013-06-02 22:03:00,
2013-06-02 18:12:00,81.0,75.0,29.93,North,0,0.0,0.0,81,-99.99,,,-99.99,,2013-06-02 22:12:00,
2013-06-02 18:23:00,82.0,72.0,29.94,North,0,0.0,0.0,73,-99.99,,,-99.99,,2013-06-02 22:23:00,
2013-06-02 18:33:00,82.0,71.0,29.94,North,0,0.0,0.0,70,-99.99,,,-99.99,,2013-06-02 22:33:00,
2013-06-02 18:42:00,82.0,71.0,29.94,North,0,0.0,0.0,70,-99.99,,,-99.99,,2013-06-02 22:42:00,
2013-06-02 18:53:00,82.0,73.0,29.94,North,0,0.0,0.0,75,-99.99,,,-99.99,,2013-06-02 22:53:00,
2013-06-02 19:02:00,81.0,74.0,29.93,North,0,0.0,0.0,79,-99.99,,,-99.99,,2013-06-02 23:02:00,
2013-06-02 19:12:00,81.0,74.0,29.93,North,0,0.0,0.0,79,-99.99,,,-99.99,,2013-06-02 23:12:00,
2013-06-02 19:22:00,81.0,75.0,29.93,North,0,0.0,0.0,81,-99.99,,,-99.99,,2013-06-02 23:22:00,
2013-06-02 19:32:00,80.0,72.0,29.94,North,0,0.0,0.0,77,-99.99,,,-99.99,,2013-06-02 23:32:00,
2013-06-02 19:42:00,80.0,72.0,29.94,North,0,0.0,0.0,77,-99.99,,,-99.99,,2013-06-02 23:42:00,
2013-06-02 19:52:00,80.0,72.0,29.94,North,0,0.0,0.0,77,-99.99,,,-99.99,,2013-06-02 23:52:00,
2013-06-02 20:01:00,79.0,73.0,29.94,North,0,0.0,0.0,81,-99.99,,,-99.99,,2013-06-03 00:01:00,
2013-06-02 20:12:00,78.0,72.0,29.94,North,0,0.0,0.0,82,-99.99,,,-99.99,,2013-06-03 00:12:00,
2013-06-02 20:22:00,78.0,72.0,29.94,North,0,0.0,0.0,82,-99.99,,,-99.99,,2013-06-03 00:22:00,
2013-06-02 20:32:00,79.0,71.0,29.94,North,0,0.0,0.0,76,-99.99,,,-99.99,,2013-06-03 00:32:00,
2013-06-02 20:42:00,79.0,69.0,29.94,North,0,0.0,0.0,72,-99.99,,,-99.99,,2013-06-03 00:42:00,
2013-06-02 20:52:00,79.0,69.0,29.94,North,0,0.0,0.0,72,-99.99,,,-99.99,,2013-06-03 00:52:00,
2013-06-02 21:01:00,79.0,71.0,29.95,North,0,0.0,0.0,76,-99.99,,,-99.99,,2013-06-03 01:01:00,
2013-06-02 21:11:00,79.0,71.0,29.95,North,0,0.0,0.0,76,-99.99,,,-99.99,,2013-06-03 01:11:00,
2013-06-02 21:21:00,80.0,74.0,29.96,North,0,0.0,0.0,81,-99.99,,,-99.99,,2013-06-03 01:21:00,
2013-06-02 21:32:00,80.0,74.0,29.96,North,0,0.0,0.0,81,-99.99,,,-99.99,,2013-06-03 01:32:00,
2013-06-02 21:42:00,80.0,74.0,29.96,North,0,0.0,0.0,81,-99.99,,,-99.99,,2013-06-03 01:42:00,
2013-06-02 21:52:00,79.0,73.0,29.96,North,0,0.0,0.0,81,-99.99,,,-99.99,,2013-06-03 01:52:00,
2013-06-02 22:02:00,79.0,73.0,29.97,North,0,0.0,0.0,82,-99.99,,,-99.99,,2013-06-03 02:02:00,
2013-06-02 22:12:00,79.0,73.0,29.97,North,0,0.0,0.0,82,-99.99,,,-99.99,,2013-06-03 02:12:00,
2013-06-02 22:22:00,79.0,74.0,29.98,North,0,0.0,0.0,84,-99.99,,,-99.99,,2013-06-03 02:22:00,
2013-06-02 22:32:00,79.0,73.0,29.98,North,0,0.0,0.0,83,-99.99,,,-99.99,,2013-06-03 02:32:00,
2013-06-02 22:42:00,79.0,73.0,29.98,North,0,0.0,0.0,83,-99.99,,,-99.99,,2013-06-03 02:42:00,
2013-06-02 22:52:00,78.0,72.0,29.98,North,0,0.0,0.0,83,-99.99,,,-99.99,,2013-06-03 02:52:00,
2013-06-02 23:02:00,79.0,73.0,29.99,North,0,0.0,0.0,83,-99.99,,,-99.99,,2013-06-03 03:02:00,
2013-06-02 23:12:00,79.0,73.0,29.99,North,0,0.0,0.0,83,-99.99,,,-99.99,,2013-06-03 03:12:00,
2013-06-02 23:22:00,79.0,73.0,29.99,North,0,0.0,0.0,83,-99.99,,,-99.99,,2013-06-03 03:22:00,
2013-06-02 23:33:00,79.0,73.0,29.99,North,0,0.0,0.0,82,-99.99,,,-99.99,,2013-06-03 03:33:00,
2013-06-02 23:43:00,79.0,73.0,29.99,North,0,0.0,0.0,82,-99.99,,,-99.99,,2013-06-03 03:43:00,
2013-06-02 23:53:00,79.0,73.0,29.99,North,0,0.0,0.0,82,-99.99,,,-99.99,,2013-06-03 03:53:00,